Total_Precipitation_Accumulation
0.98 1.31 2.39 2.05 1.47 1.64 1.45 0.87 1.00 0.87 0.93 0.90 0.89 0.53 0.48 0.46 0.53 0.48 0.42 0.48 0.53 0.53 0.50 0.40 0.35 0.33 0.36 0.35 0.41 0.42 0.51 0.74 0.78 0.51 0.44 0.57 0.74 1.01 0.94 1.10 1.59 0.39 1.06
0.64 0.65 2.12 2.17 1.23 1.01 0.77 0.74 0.85 0.84 0.83 0.64 0.59 0.67 0.61 0.55 0.55 0.35 0.43 0.56 0.47 0.55 0.58 0.49 0.47 0.44 0.47 0.42 0.44 0.62 0.89 1.37 1.77 1.36 1.26 0.83 0.89 1.23 1.28 1.35 1.32 0.46 0.90
0.26 0.37 1.24 1.81 1.32 1.25 0.90 0.82 0.77 0.78 0.65 0.76 0.67 0.67 0.68 0.49 0.44 0.65 0.61 0.72 0.70 0.66 0.58 0.55 0.69 0.69 0.53 0.47 0.60 0.95 1.02 1.36 1.55 1.65 1.70 0.87 0.54 1.05 0.71 0.79 0.62 0.68 0.70
0.08 0.36 0.42 1.38 1.33 1.09 0.83 0.75 0.68 0.87 0.89 1.12 0.86 0.74 0.61 0.81 0.72 0.66 0.50 0.75 0.79 0.78 0.80 0.72 0.66 0.61 0.56 0.77 0.88 0.97 0.97 1.06 1.09 1.24 0.60 0.21 0.28 1.11 0.72 0.76 0.61 0.80 0.69
0.14 0.30 0.27 0.80 0.90 0.80 0.81 0.82 0.68 0.74 0.80 0.97 1.01 0.84 0.84 0.79 0.80 0.68 0.81 0.71 0.87 0.85 0.75 0.78 0.64 0.72 0.75 1.04 0.87 0.95 1.00 0.93 0.91 0.81 0.27 0.40 0.29 0.93 0.93 0.97 0.87 0.69 0.67
0.43 0.32 0.38 0.50 0.62 0.68 0.71 0.54 0.57 0.65 0.72 1.06 1.04 0.72 0.73 0.82 0.94 1.11 1.37 1.00 0.86 0.64 0.53 0.46 0.49 0.62 0.69 0.80 0.88 1.18 1.31 1.04 1.11 0.67 0.22 0.31 0.58 0.54 0.50 0.45 0.46 0.30 0.31
0.72 0.33 0.69 0.93 0.72 0.70 0.72 0.93 0.82 0.66 0.71 1.02 0.93 0.92 0.86 0.81 0.79 1.22 1.00 0.92 0.64 0.29 0.25 0.27 0.31 0.55 0.65 1.02 1.03 1.09 1.11 1.22 1.92 1.86 0.95 0.63 0.33 0.74 0.36 0.42 0.33 0.21 0.32
0.33 0.27 0.87 0.82 0.94 0.78 0.68 0.88 0.74 0.62 0.83 0.87 0.87 1.21 1.10 1.46 1.38 1.16 0.76 0.40 0.11 0.05 0.12 0.13 0.46 0.68 0.91 0.84 0.65 0.60 0.67 0.67 0.93 1.07 1.07 0.59 0.33 0.61 0.44 0.38 0.36 0.23 0.22
0.20 0.36 0.63 0.77 0.57 0.69 0.84 0.93 0.84 0.55 0.72 0.72 0.80 1.10 1.00 0.84 0.92 0.81 0.44 0.18 0.07 0.11 0.21 0.23 0.37 0.50 0.66 0.47 0.51 0.40 0.57 0.51 0.62 1.15 1.30 0.59 0.59 0.61 0.31 0.17 0.19 0.13 0.18
0.37 0.37 0.22 0.56 0.68 0.55 0.73 0.95 0.71 0.72 0.72 0.70 0.75 1.05 0.97 0.50 0.58 0.54 0.47 0.33 0.16 0.15 0.16 0.23 0.35 0.47 0.62 0.55 0.59 0.38 0.49 0.42 0.50 1.16 1.13 0.27 0.69 0.62 0.21 0.29 0.32 0.34 0.14
0.42 0.24 0.27 0.30 0.36 0.93 0.78 0.95 1.17 1.22 1.02 1.03 0.96 1.33 1.89 0.69 0.82 0.90 0.50 0.22 0.16 0.19 0.17 0.24 0.26 0.47 0.46 0.32 0.39 0.47 0.35 0.25 0.25 0.18 0.17 0.20 0.73 0.84 0.58 0.22 0.18 0.25 0.16
0.24 0.47 0.37 0.17 0.16 0.36 0.54 1.12 1.25 1.05 1.00 0.95 0.96 1.28 1.46 0.62 0.53 0.37 0.38 0.34 0.29 0.32 0.40 0.45 0.43 0.59 1.01 0.47 0.20 0.22 0.23 0.11 0.13 0.09 0.06 0.16 0.51 0.75 1.01 0.69 0.25 0.18 0.13
0.09 0.11 0.32 0.11 0.25 0.35 0.50 0.33 0.61 0.59 0.34 0.49 0.52 0.62 0.99 0.50 0.41 0.55 0.58 1.07 0.61 0.49 0.77 0.76 0.42 0.43 1.04 0.43 0.09 0.09 0.10 0.05 0.05 0.02 0.04 0.08 0.17 0.40 0.82 0.80 0.70 0.36 0.26
0.04 0.07 0.13 0.12 0.30 0.60 0.46 0.40 0.35 0.19 0.13 0.35 0.31 0.18 0.29 0.35 0.46 0.72 0.78 1.02 0.84 0.75 1.32 0.61 0.23 0.20 0.29 0.23 0.04 0.03 0.03 0.04 0.00 0.01 0.02 0.08 0.17 0.17 0.28 0.64 0.81 0.73 0.32
0.02 0.05 0.08 0.05 0.24 0.43 0.50 0.27 0.39 0.12 0.08 0.11 0.12 0.17 0.41 0.34 0.42 0.62 0.58 0.88 0.66 0.54 1.11 0.33 0.24 0.15 0.05 0.03 0.01 0.03 0.02 0.02 0.00 0.01 0.01 0.06 0.11 0.23 0.17 0.42 0.43 0.58 0.41
0.02 0.00 0.03 0.04 0.13 0.30 0.62 0.43 0.21 0.16 0.03 0.05 0.13 0.23 0.41 0.33 0.56 0.66 0.67 0.40 0.36 0.41 0.38 0.30 0.26 0.37 0.03 0.00 0.00 0.01 0.02 0.01 0.00 0.00 0.00 0.05 0.10 0.14 0.22 0.44 0.52 0.53 0.70
0.00 0.01 0.00 0.02 0.09 0.14 0.26 0.21 0.10 0.17 0.07 0.08 0.11 0.32 0.56 0.47 0.59 0.81 0.56 0.47 0.56 0.45 0.28 0.31 0.17 0.29 0.03 0.01 0.00 0.00 0.00 0.00 0.00 0.00 0.00 0.03 0.09 0.09 0.21 0.44 0.63 0.49 0.37
0.00 0.00 0.01 0.01 0.02 0.09 0.11 0.07 0.09 0.06 0.10 0.06 0.21 0.13 0.29 0.56 0.52 0.73 0.67 0.85 0.64 1.00 0.43 0.33 0.23 0.13 0.01 0.01 0.00 0.00 0.00 0.00 0.00 0.00 0.02 0.01 0.08 0.11 0.15 0.26 0.50 0.62 0.59
0.00 0.00 0.01 0.01 0.01 0.05 0.05 0.10 0.15 0.09 0.15 0.17 0.24 0.30 0.25 0.31 0.47 1.08 1.02 0.85 0.45 0.52 0.37 0.30 0.22 0.07 0.01 0.01 0.00 0.00 0.01 0.00 0.01 0.00 0.04 0.09 0.32 0.16 0.14 0.17 0.27 0.38 0.51
0.00 0.00 0.00 0.02 0.00 0.07 0.19 0.31 0.24 0.18 0.20 0.17 0.18 0.41 0.44 0.38 0.54 0.88 0.78 0.80 0.48 0.54 0.50 0.67 0.17 0.03 0.03 0.02 0.08 0.03 0.00 0.00 0.02 0.04 0.04 0.12 0.23 0.15 0.17 0.28 0.27 0.45 0.40
0.00 0.00 0.00 0.02 0.08 0.13 0.14 0.10 0.13 0.21 0.12 0.16 0.28 0.36 0.48 0.43 0.42 0.58 0.70 0.73 0.93 0.85 0.88 0.31 0.12 0.03 0.01 0.00 0.01 0.08 0.02 0.02 0.04 0.14 0.07 0.16 0.25 0.29 0.29 0.35 0.64 0.44 0.59
0.00 0.00 0.00 0.07 0.15 0.13 0.08 0.14 0.15 0.13 0.12 0.21 0.38 0.44 0.22 0.32 0.41 0.35 0.66 0.48 0.68 0.64 0.47 0.39 0.47 0.30 0.55 0.04 0.07 0.16 0.10 0.31 0.64 0.23 0.18 0.11 0.22 0.23 0.40 1.03 1.70 0.59 0.36
0.01 0.00 0.00 0.06 0.17 0.15 0.20 0.18 0.49 0.59 0.65 0.78 0.55 0.31 0.16 0.22 0.24 0.40 0.49 0.65 0.68 0.63 0.60 0.33 0.19 0.26 0.50 0.08 0.15 0.16 0.33 0.60 0.53 0.31 0.27 0.22 0.21 0.13 0.10 0.18 0.32 0.41 0.42
0.01 0.00 0.00 0.02 0.17 0.16 0.18 0.23 0.50 0.60 0.61 0.49 0.40 0.56 0.36 0.14 0.14 0.20 0.29 0.36 0.51 1.16 1.13 0.40 0.28 0.24 0.23 0.41 0.24 0.10 0.14 0.33 0.54 1.10 0.64 0.70 0.31 0.30 0.60 0.24 0.19 0.44 0.31
0.00 0.00 0.00 0.00 0.15 0.15 0.22 0.60 0.36 0.20 0.44 0.43 0.42 1.02 0.55 0.29 0.12 0.17 0.26 0.38 0.27 0.39 0.40 0.37 0.29 0.18 0.17 0.27 0.54 0.38 0.19 0.20 0.34 0.86 0.35 0.66 0.34 0.32 0.30 0.31 0.26 0.28 0.50
0.01 0.00 0.00 0.00 0.04 0.12 0.19 0.19 0.34 0.46 0.61 1.04 1.20 1.02 0.44 0.24 0.16 0.12 0.15 0.30 0.32 0.45 0.46 0.28 0.25 0.13 0.10 0.16 0.15 0.20 0.29 0.48 0.45 0.39 0.57 0.16 0.16 0.21 0.20 0.21 0.17 0.21 0.42